Tracking 19709 objects as of 17-Jun-2019
HD Live streaming from Space Station
objects crossing your sky now

DELTA 1 DEB

Track DELTA 1 DEB now!
10-day predictions


NORAD ID: 7085
Int'l Code: 1973-086CD
Perigee: 1,354.6 km
Apogee: 1,507.9 km
Inclination: 102.1 °
Period: 114.3 minutes
Semi major axis: 7802 km
RCS: 0.072 m2 (small)
Launch date: November 6, 1973
Source: United States (US)
Launch site: AIR FORCE WESTERN TEST RANGE (AFWTR)

Note: This is SATELLITE DEBRIS
aabbcc
Your satellite tracking list
Your tracking list is empty




NASA's NSSDC Master Catalog

Two Line Element Set (TLE):
1  7085U 73086CD  19167.33519885 -.00000021  00000-0  15316-3 0  9993
2  7085 102.1477 211.2760 0098221  90.7256 331.2575 12.59723427 94207
Source of the keplerian elements: AFSPC